Showing default

ETS 6, 23230

Orbit data source: Space-Track

ETS 6, 23230 is a payload satellite owned by NASDA (JP) in HEO that was launched on Sun, 28 Aug 1994 UTC via an H-II launch vehicle from the Tanegashima Space Center (TNSTA). Payload-class satellites include a variety of spacecraft equipped with specific instruments for various scientific and technological missions. These include communications satellites like Starlink; space stations such as the ISS; scientific satellites like the Hubble; Earth observation satellites from companies like Planet Labs, Umbra, and HawkEye 360; GPS; miniature CubeSats for education and research; and military/defense satellites.

Loading next visibility...
Identifier
23230, 1994-056A
Orbit
HEO
Country
Flag of JPJP / JPN
Related business
Manufacturer
Toshiba
Mission
Non-operational Civil Communications
Bus & Motor
ETS-6, Unknown motor
Mass
3,800 kg wet, 1,950 kg dry
Launch date (UTC)
1994-08-28 (32 years ago)
Launch vehicle
H-II
Launch site
Tanegashima Space Center (TNSTA)
Object type
Payload
Rocket body
Debris
Shape & HBR
Hex Poly + 2 Pan, 15.2 m
Radar Cross Section
28.040 m², Large (>1 m²)

Expand to show TLE details & history
Last TLE update: 9 hours ago

TLE from 9 hours ago
0 ETS 6
1 23230U 94056A   26169.59298573 -.00000111  00000-0  00000+0 0  9999
2 23230  12.5381 240.4848 5057874 182.6673 106.5565  1.67089457194268
Epoch: 2026-06-18T14:13Z
TLE epoch observation values (Epoch: 2026-06-18T14:13:53.967Z)
Latitude
-5.82542°
Longitude
92.94893°
Altitude
33,176.905 km
Speed
2.621 km/s
True Right ascension
14h 13m 01s
True Declination
-5° 49' 09"
Sunlit
Object was in daylight at epoch
Visualization orbit readout
Latitude
Unknown
Longitude
Unknown
Altitude
Unknown
Speed
Unknown
Apparent Right ascension
Unknown
Apparent Declination
Unknown
Sunlit
N/A
Visualization observer readout
Local Sidereal Time
10:04:59
Azimuth
Unknown
Elevation
Unknown
Doppler factor
Unknown
Orbital elements
Apogee altitude
38,796.76 km
Perigee altitude
8,448.659 km
Semi-major axis
30,000.847 km
Eccentricity
0.50579
Inclination
12.5381°
RAAN
240.4848°
Arg. of periapsis
182.6673°
True anomaly
149.47188°
Mean anomaly
106.5565°
Eccentric anomaly
129.059°
Mean motion
0.41768 °/min
Orbital period
861.91 mins
BSTAR
0
Loading maneuver chart data...
Computing Atmospheric mass density...
Loading historical data...
Loading historical data...
Loading historical data...
Loading historical data...
Loading historical data...
Loading historical data...
Loading historical data...
Other satellites on launch #56 in the year 1994 (1994-08-28 UTC)

Documentation

Showing up to 5 results
|